星链-1682 (STARLINK-1682 )

导读

STARLINK-1682是美国太空探索技术公司(SpaceX)星链卫星星座中的一员,于2020年10月6日发射升空。星链计划旨在构建全球卫星互联网星座,该卫星承担着为全球偏远地区等提供低延迟宽带互联网接入服务的任务,属于低轨通信卫星,推动了全球卫星互联网组网进程,助力拓展全球网络覆盖范围。

基本信息
目录编号:
46577
目录名称:
STARLINK-1682
国际标识:
2020-070AX
轨道中心:
EARTH
卫星名称:
星链-1682
卫星全名:
星链-1682 (STARLINK-1682 )
卫星状态:
已陨落 最后检测时间 2025-03-02
发射日期:
2020-10-06 UTC
国别 :
美国 (US)
星等 :
--
轨道信息
数据来源 国际轨道数据
星历时间: 2025-03-02T17:16:15+0800
轨道信息已过期473天
半长轴: 6565.755km
偏心率: 0.0004924
轨道倾角: 53.034°
近地点辐角 204.464°
升交点赤经 349.533°
平近点角 260.837°
近地点: 184.387km
远地点: 190.853km
周期: 88.244分钟
每日圈数: 16.318332
详细信息
固有亮度:
5
最大亮度:
2.5
卫星平台:
Starlink V1.0
覆盖范围:
全球
运营商:
太空探索技术公司
运营商所在国:
美国
制造商(研发单位):
太空探索技术公司
制造商所在国:
美国
使用方式:
暂无
卫星简介
星链(Starlink)计划是由太空探索技术公司(SpaceX)提出的一个巨型低轨卫星互联网星座项目,计划在2019年至2024年间在太空搭建由约1.2万颗卫星组成的“星链”网络,其中1584颗将部署在地球上空550千米处的近地轨道,并从2020年开始工作。该卫星仍在工作。